AXM091 VOMM-WMKK

Flight info

Callsign AXM091
Flight time N/A
Altitude 37000
Route GIRNA2B GIRNA P574 NOPEK/N0448F390 P574 PUGER PUGER1K
Aircraft A320/M-SDE3FGHIRWY/LB1

Departure

Time 2026-04-20 07:01
Airport Chennai International Airport (VOMM)

Arrival

Time N/A
Airport Kuala Lumpur International Airport (WMKK)
Time Latitude Longitude Altitude Speed Heading
2026-04-20 06:45 12.98369 80.16391 55 ft 0 kts 159°
2026-04-20 06:49 12.98388 80.16383 52 ft 4 kts 155°
2026-04-20 06:50 12.98412 80.16371 50 ft 4 kts 144°
2026-04-20 06:50 12.98431 80.16352 50 ft 4 kts 114°
2026-04-20 06:50 12.98433 80.16335 50 ft 1 kts 70°
2026-04-20 06:50 12.98432 80.16331 50 ft 0 kts 70°
2026-04-20 06:54 12.98438 80.16347 52 ft 7 kts 70°
2026-04-20 06:54 12.98466 80.16429 51 ft 17 kts 70°
2026-04-20 06:55 12.98507 80.16540 50 ft 25 kts 69°
2026-04-20 06:55 12.98534 80.16613 50 ft 28 kts 69°
2026-04-20 06:55 12.98589 80.16756 50 ft 18 kts 59°
2026-04-20 06:56 12.98690 80.16742 53 ft 15 kts 336°
2026-04-20 06:56 12.98769 80.16770 54 ft 13 kts 66°
2026-04-20 06:56 12.98801 80.16853 53 ft 12 kts 69°
2026-04-20 06:56 12.98829 80.16931 55 ft 11 kts 70°
2026-04-20 06:57 12.98863 80.17020 55 ft 18 kts 69°
2026-04-20 06:57 12.98917 80.17162 55 ft 23 kts 68°
2026-04-20 06:57 12.98994 80.17320 53 ft 27 kts 72°
2026-04-20 06:57 12.99060 80.17507 55 ft 29 kts 68°
2026-04-20 06:58 12.99116 80.17657 52 ft 16 kts 69°
2026-04-20 06:58 12.99196 80.17691 53 ft 11 kts 339°
2026-04-20 06:58 12.99208 80.17686 50 ft 0 kts 338°
2026-04-20 06:59 12.99241 80.17673 52 ft 10 kts 338°
2026-04-20 06:59 12.99284 80.17613 58 ft 12 kts 259°
2026-04-20 06:59 12.99274 80.17584 55 ft 0 kts 248°
2026-04-20 07:00 12.99268 80.17566 57 ft 15 kts 249°
2026-04-20 07:00 12.99116 80.17164 52 ft 100 kts 249°
2026-04-20 07:00 12.98787 80.16288 52 ft 160 kts 248°
2026-04-20 07:00 12.98348 80.15150 563 ft 173 kts 245°
2026-04-20 07:01 12.97898 80.13981 1307 ft 178 kts 237°
2026-04-20 07:01 12.96960 80.13265 2064 ft 176 kts 190°
2026-04-20 07:01 12.95717 80.13377 2697 ft 187 kts 166°
2026-04-20 07:01 12.94378 80.13723 2982 ft 211 kts 166°
2026-04-20 07:02 12.92886 80.14111 3425 ft 236 kts 167°
2026-04-20 07:02 12.91190 80.14546 3998 ft 257 kts 166°
2026-04-20 07:02 12.89441 80.14987 4819 ft 266 kts 166°
2026-04-20 07:02 12.87619 80.15438 5706 ft 272 kts 165°
2026-04-20 07:03 12.85759 80.15894 6574 ft 277 kts 165°
2026-04-20 07:03 12.84504 80.16199 7121 ft 281 kts 164°
2026-04-20 07:03 12.82576 80.16666 7950 ft 288 kts 164°
2026-04-20 07:03 12.79930 80.17310 9095 ft 296 kts 163°
2026-04-20 07:04 12.77910 80.17802 9950 ft 301 kts 163°
2026-04-20 07:04 12.76549 80.18197 10217 ft 314 kts 155°
2026-04-20 07:04 12.74604 80.19312 10649 ft 326 kts 139°
2026-04-20 07:04 12.72959 80.20929 11373 ft 328 kts 127°
2026-04-20 07:05 12.71638 80.22845 12175 ft 330 kts 121°
2026-04-20 07:05 12.70360 80.24812 13004 ft 334 kts 121°
2026-04-20 07:05 12.69059 80.26797 13772 ft 337 kts 122°
2026-04-20 07:05 12.67740 80.28799 14447 ft 341 kts 122°
2026-04-20 07:06 12.66405 80.30822 15137 ft 344 kts 122°
2026-04-20 07:06 12.65061 80.32865 15809 ft 348 kts 122°
2026-04-20 07:06 12.63706 80.34932 16480 ft 351 kts 122°
2026-04-20 07:06 12.62528 80.37098 17124 ft 354 kts 112°
2026-04-20 07:07 12.61643 80.39465 17786 ft 358 kts 110°
2026-04-20 07:07 12.60761 80.41860 18407 ft 362 kts 110°
2026-04-20 07:07 12.59864 80.44278 18953 ft 366 kts 110°
2026-04-20 07:07 12.58951 80.46731 19472 ft 370 kts 111°
2026-04-20 07:08 12.58030 80.49210 20027 ft 374 kts 111°
2026-04-20 07:08 12.57105 80.51715 20538 ft 379 kts 111°
2026-04-20 07:08 12.56197 80.54264 21018 ft 384 kts 110°
2026-04-20 07:08 12.55297 80.56855 21543 ft 388 kts 110°
2026-04-20 07:09 12.54399 80.59469 22060 ft 391 kts 110°
2026-04-20 07:09 12.53496 80.62112 22530 ft 396 kts 110°
2026-04-20 07:09 12.52583 80.64786 22999 ft 400 kts 110°
2026-04-20 07:09 12.51656 80.67491 23460 ft 404 kts 111°
2026-04-20 07:10 12.50717 80.70212 23842 ft 408 kts 110°
2026-04-20 07:10 12.49760 80.72963 24223 ft 412 kts 111°
2026-04-20 07:10 12.48792 80.75736 24621 ft 415 kts 111°
2026-04-20 07:10 12.47816 80.78536 25014 ft 419 kts 111°
2026-04-20 07:11 12.46837 80.81349 25403 ft 422 kts 111°
2026-04-20 07:11 12.45851 80.84187 25795 ft 425 kts 111°
2026-04-20 07:11 12.44859 80.87052 26185 ft 428 kts 111°
2026-04-20 07:11 12.43858 80.89936 26580 ft 431 kts 111°
2026-04-20 07:12 12.42846 80.92837 26958 ft 434 kts 111°
2026-04-20 07:12 12.41826 80.95761 27352 ft 437 kts 111°
2026-04-20 07:12 12.40803 80.98701 27715 ft 440 kts 111°
2026-04-20 07:12 12.39769 81.01666 28078 ft 444 kts 112°
2026-04-20 07:13 12.38726 81.04648 28440 ft 447 kts 112°
2026-04-20 07:13 12.37678 81.07644 28797 ft 450 kts 112°
2026-04-20 07:13 12.36623 81.10674 29155 ft 453 kts 112°
2026-04-20 07:13 12.35563 81.13721 29510 ft 456 kts 112°
2026-04-20 07:14 12.34507 81.16750 29863 ft 459 kts 112°
2026-04-20 07:14 12.33428 81.19840 30173 ft 462 kts 112°
2026-04-20 07:14 12.32341 81.22947 30483 ft 465 kts 112°
2026-04-20 07:14 12.31247 81.26064 30799 ft 467 kts 112°
2026-04-20 07:15 12.30149 81.29195 31102 ft 469 kts 112°
2026-04-20 07:15 12.29048 81.32343 31385 ft 472 kts 112°
2026-04-20 07:15 12.27939 81.35515 31726 ft 472 kts 112°
2026-04-20 07:15 12.26834 81.38676 32148 ft 471 kts 112°
2026-04-20 07:16 12.25734 81.41822 32591 ft 470 kts 112°
2026-04-20 07:16 12.24635 81.44966 33024 ft 469 kts 112°
2026-04-20 07:16 12.23536 81.48101 33461 ft 468 kts 113°
2026-04-20 07:16 12.22438 81.51225 33890 ft 467 kts 113°
2026-04-20 07:17 12.21351 81.54316 34257 ft 466 kts 113°
2026-04-20 07:17 12.20263 81.57419 34633 ft 464 kts 113°
2026-04-20 07:17 12.19172 81.60521 35018 ft 462 kts 113°
2026-04-20 07:17 12.18088 81.63608 35391 ft 461 kts 113°
2026-04-20 07:18 12.17008 81.66683 35774 ft 459 kts 114°
2026-04-20 07:18 12.15931 81.69750 36116 ft 458 kts 114°
2026-04-20 07:18 12.14858 81.72806 36471 ft 456 kts 114°
2026-04-20 07:18 12.13784 81.75854 36826 ft 455 kts 114°
2026-04-20 07:19 12.12713 81.78883 37178 ft 453 kts 114°
2026-04-20 07:19 12.11645 81.81904 37491 ft 452 kts 114°
2026-04-20 07:19 12.10577 81.84932 37625 ft 453 kts 114°
2026-04-20 07:19 12.09511 81.87960 37793 ft 454 kts 114°
2026-04-20 07:20 12.08445 81.90997 37994 ft 453 kts 114°
2026-04-20 07:20 12.07386 81.94024 38204 ft 453 kts 114°
2026-04-20 07:20 12.06327 81.97053 38418 ft 452 kts 114°
2026-04-20 07:20 12.05266 82.00072 38587 ft 451 kts 114°
2026-04-20 07:21 12.04200 82.03083 38750 ft 450 kts 114°
2026-04-20 07:21 12.03135 82.06090 38855 ft 450 kts 114°
2026-04-20 07:21 12.02067 82.09099 38880 ft 450 kts 114°
2026-04-20 07:22 11.99937 82.15105 38879 ft 450 kts 114°
2026-04-20 07:22 11.97830 82.21076 38879 ft 450 kts 114°
2026-04-20 07:23 11.96240 82.25491 38872 ft 446 kts 123°
2026-04-20 07:23 11.95940 82.26049 38871 ft 439 kts 129°
2026-04-20 07:23 11.94528 82.28351 39110 ft 434 kts 130°
2026-04-20 07:24 11.93217 82.30059 39174 ft 430 kts 131°
2026-04-20 07:24 11.92185 82.31502 39158 ft 430 kts 137°
2026-04-20 07:24 11.90763 82.32690 38900 ft 419 kts 160°
2026-04-20 07:25 11.88579 82.33406 38692 ft 402 kts 166°
2026-04-20 07:25 11.86018 82.34381 39179 ft 395 kts 155°
2026-04-20 07:25 11.83787 82.36109 38937 ft 414 kts 135°
2026-04-20 07:25 11.82486 82.37754 38268 ft 430 kts 129°
2026-04-20 07:26 11.81092 82.40061 36405 ft 462 kts 131°
2026-04-20 07:26 11.79244 82.42702 36476 ft 448 kts 123°
2026-04-20 07:26 11.78106 82.45670 36665 ft 457 kts 105°
2026-04-20 07:26 11.77222 82.48758 36638 ft 448 kts 128°